Wind_Speed
25 23 21 18 17 17 17 17 16 15 13 13 13 12 10 9 8 7 6 6 7 9 11 11 12 11 12 12 11 10 10 11 14 16 17 16 14 11 8 5 2 7 12 12 13 12 7 3 6 10 10 11 11 13 16 16 13 11 10 10 8 7 8
24 23 21 18 17 17 16 16 15 14 12 12 12 11 10 9 8 7 6 5 6 8 10 12 12 11 11 11 10 10 9 11 12 12 14 17 16 14 11 7 6 11 12 12 16 16 11 6 4 4 8 12 11 12 16 15 12 10 10 10 8 8 9
26 23 20 18 17 16 16 16 15 14 13 12 12 11 11 10 9 8 5 4 6 8 9 11 12 11 11 10 9 9 9 10 11 10 11 14 16 15 14 11 10 13 13 10 12 14 12 8 5 5 10 13 10 11 16 15 12 12 12 10 8 9 9
25 22 20 18 17 18 18 16 15 14 13 13 13 12 10 10 9 8 5 4 8 11 9 8 10 11 11 10 9 9 10 10 10 10 9 11 15 14 14 14 14 16 15 12 14 16 12 9 7 6 9 13 12 12 15 16 14 14 12 9 9 9 9
23 21 20 19 18 19 17 15 14 14 13 13 13 12 10 9 8 9 8 7 10 12 10 8 8 9 10 10 10 10 11 11 10 9 9 11 14 14 15 15 15 17 17 15 17 17 14 17 16 9 9 13 11 11 16 17 15 14 12 9 8 9 9
20 19 20 19 17 17 16 15 14 12 11 10 10 10 9 9 9 9 11 11 12 11 10 8 8 10 11 12 12 11 12 12 10 10 10 10 12 13 15 16 16 17 14 14 17 15 15 22 22 13 10 11 8 11 15 16 14 12 10 8 8 8 9
18 18 19 18 17 16 15 15 14 12 10 9 9 10 10 11 10 10 11 11 11 10 8 8 8 10 12 13 13 12 12 12 11 11 10 9 11 13 14 14 14 16 14 12 14 15 18 23 23 17 12 7 8 13 12 12 13 11 8 8 7 7 8
16 17 17 17 17 16 14 14 14 13 11 10 10 10 11 12 11 10 10 10 9 9 10 10 10 11 12 13 13 12 12 12 12 12 10 10 11 12 13 12 11 14 15 14 15 17 20 23 24 25 19 10 6 8 7 8 9 7 9 11 7 6 6
15 16 16 15 15 15 14 14 15 14 13 12 12 11 10 10 9 8 9 9 8 9 11 12 11 11 12 13 13 13 13 12 12 12 11 11 13 14 13 12 11 12 15 16 18 20 21 23 25 26 26 21 12 4 4 5 3 5 11 12 8 6 5
15 15 16 16 15 14 14 15 17 16 14 13 13 12 11 10 10 9 9 9 9 11 13 13 13 13 14 15 15 15 15 14 14 14 14 15 17 17 17 15 13 11 12 16 20 22 22 23 25 25 27 29 23 11 4 3 3 6 12 11 8 8 7
16 16 17 17 15 14 15 18 19 17 16 14 13 11 11 11 11 11 10 10 11 14 15 15 15 16 16 16 17 16 16 16 16 16 16 17 18 18 17 16 16 16 15 15 19 23 25 24 23 24 26 28 28 20 11 7 4 8 13 13 9 9 10
18 17 17 17 16 16 19 20 19 18 16 13 12 12 12 12 12 12 12 13 14 15 15 15 15 15 15 15 15 16 16 16 16 16 16 16 16 16 17 16 16 18 19 19 18 21 23 21 21 25 26 25 26 25 21 14 6 7 14 14 11 11 11
19 18 17 17 17 19 21 21 19 17 14 13 13 14 13 13 13 12 12 13 14 14 14 13 13 14 14 14 14 15 15 15 16 16 16 14 13 14 16 16 17 18 20 21 21 20 18 16 16 21 26 26 23 22 22 18 10 9 13 14 13 12 11
19 18 17 17 19 20 20 19 17 15 14 15 15 14 13 13 13 12 12 12 13 13 12 12 13 14 15 14 14 15 15 15 16 16 15 13 13 14 15 15 16 17 18 18 18 17 15 13 11 12 19 25 23 21 21 18 15 12 11 12 14 12 11
19 18 18 18 18 19 18 17 17 15 15 15 14 13 12 12 12 13 13 13 12 12 12 12 12 14 15 15 15 15 15 16 16 15 15 14 14 15 16 16 15 14 15 15 14 12 11 10 10 10 13 20 23 21 19 17 17 15 12 14 16 14 12
19 17 17 17 17 17 17 16 15 15 16 16 14 14 13 12 12 13 13 13 12 11 11 11 12 14 14 14 15 16 16 16 16 16 17 16 14 14 15 16 14 12 13 13 11 10 10 10 10 11 13 17 19 19 16 15 16 16 16 16 16 15 14
19 17 16 16 16 15 15 15 14 15 17 17 15 14 13 12 12 13 14 13 12 11 11 12 13 13 13 13 15 17 17 17 16 17 18 17 15 14 15 15 13 12 12 13 11 10 10 11 12 13 14 14 15 15 15 14 14 16 18 18 16 16 15
17 16 16 15 15 14 14 14 14 16 18 16 14 15 14 13 13 13 13 13 13 12 11 11 12 12 13 13 15 17 17 16 16 16 17 17 16 16 15 15 14 12 12 13 12 10 10 11 14 15 14 13 14 14 15 15 14 14 17 18 17 16 15
15 15 15 14 12 12 13 14 15 16 17 16 13 14 14 14 13 14 13 13 14 12 10 11 12 12 12 14 16 16 16 16 17 17 17 17 17 16 15 15 15 14 14 14 14 12 11 12 15 16 14 13 14 15 16 16 13 12 15 16 15 15 15
14 15 13 12 10 9 12 14 14 14 15 15 12 11 13 13 12 14 15 15 15 13 11 12 13 13 11 14 18 19 17 18 18 18 17 17 16 16 15 16 16 16 16 16 15 15 13 13 15 15 14 14 15 15 16 15 12 10 12 14 14 14 14
13 14 12 11 9 8 9 11 12 12 13 13 9 9 13 12 10 14 16 16 16 15 13 12 14 15 13 14 19 21 20 19 18 18 18 17 16 15 16 16 17 17 17 17 16 15 14 14 15 15 15 15 15 15 15 14 12 11 11 13 15 14 13
13 12 12 12 11 9 9 9 10 10 10 7 4 8 14 12 10 13 15 15 17 16 14 14 15 17 16 16 18 20 20 20 18 17 19 19 18 16 16 17 16 16 16 16 16 15 14 15 15 15 16 16 15 15 14 14 13 12 11 12 13 12 11
14 11 10 12 13 13 11 10 9 8 7 6 4 7 13 14 12 13 13 14 17 17 16 15 15 17 18 18 18 19 21 21 19 17 19 21 21 19 18 18 17 17 16 16 17 16 15 15 14 14 15 16 17 16 14 14 13 12 12 12 11 10 9
11 10 8 9 11 12 12 11 9 6 5 5 3 5 11 14 13 13 14 15 17 18 18 17 17 17 19 20 20 21 22 22 21 20 20 22 22 22 22 21 20 20 20 19 19 19 18 17 15 15 14 15 16 16 15 15 15 14 13 12 11 11 10
9 9 8 7 8 8 8 9 7 5 5 5 4 4 7 8 8 10 13 15 16 17 18 19 19 20 20 21 22 23 23 23 23 23 23 22 22 22 23 22 21 22 22 22 21 21 20 19 18 17 16 16 16 16 16 16 16 16 15 14 13 12 12
16 12 8 6 6 6 4 3 2 2 2 2 2 1 2 3 4 5 8 10 12 13 14 16 18 21 23 23 23 24 25 25 26 25 26 25 24 24 24 24 23 23 23 22 22 22 22 22 21 20 19 19 19 18 17 17 17 17 17 17 17 16 15
22 20 17 14 12 12 11 9 6 3 2 2 2 3 3 3 5 6 7 8 9 10 11 12 13 16 20 24 26 27 26 27 28 28 28 28 27 27 27 27 26 25 24 23 22 22 23 24 23 22 22 22 21 19 19 19 18 18 17 18 18 18 16
22 20 19 18 17 16 15 14 12 10 7 4 4 4 4 4 5 8 10 11 12 12 12 12 12 12 14 19 25 28 30 30 31 31 31 31 30 30 29 29 28 26 26 24 23 21 21 22 22 22 22 21 20 19 19 19 18 18 17 16 16 16 15
21 19 18 17 17 17 16 15 14 12 10 8 7 5 4 4 6 7 9 10 12 13 13 14 15 15 15 16 19 23 28 31 31 31 31 32 32 32 31 31 30 30 28 26 23 21 20 20 20 21 20 17 16 17 17 16 16 16 15 15 15 14 13
20 20 18 18 18 17 16 15 14 13 12 10 9 9 8 7 7 8 8 9 10 12 13 14 15 17 17 18 19 20 24 27 29 29 29 31 31 32 32 31 30 28 27 25 24 22 21 20 20 20 17 15 16 17 16 14 14 14 14 13 13 13 13
18 19 19 19 19 18 17 16 15 14 13 13 12 12 12 11 10 10 10 9 10 12 13 14 15 16 17 18 20 22 23 25 26 28 28 29 30 31 31 31 30 27 26 26 26 23 22 23 23 20 18 19 19 18 16 14 14 14 14 14 14 14 13
18 18 19 19 19 19 18 17 16 15 15 14 14 14 14 14 13 13 13 13 13 13 14 14 15 17 17 18 19 21 23 24 25 27 28 30 32 32 31 31 30 29 28 28 28 25 24 27 25 21 20 22 22 19 17 17 17 17 18 18 16 14 12
18 18 19 19 18 18 18 18 18 18 18 17 17 17 16 17 16 16 15 15 16 16 16 16 16 18 19 19 20 21 23 25 27 27 28 30 32 33 32 31 29 27 27 28 28 27 26 27 26 24 24 25 24 22 20 20 19 18 18 17 14 13 11
18 18 18 17 17 17 18 19 19 19 19 19 19 19 19 19 18 18 17 16 16 16 16 16 17 18 21 22 23 23 25 27 28 29 30 31 31 32 32 31 30 28 27 27 27 28 27 27 27 27 26 25 25 24 22 21 19 17 16 15 13 13 12
17 17 18 18 17 17 17 17 17 18 18 18 18 18 18 18 18 18 18 17 16 16 16 15 16 17 20 24 27 28 28 29 28 29 31 32 32 32 32 32 32 31 31 30 30 29 28 27 28 27 24 23 22 21 20 20 19 17 16 15 14 14 12
17 17 18 18 17 17 17 16 16 16 17 18 18 18 18 18 20 21 20 19 18 18 18 17 18 18 19 22 26 30 32 32 30 30 32 33 33 33 32 32 31 31 32 31 31 31 30 29 30 29 26 23 21 20 20 21 20 19 17 16 15 15 13
17 17 17 17 17 17 17 17 16 16 17 18 19 19 19 19 20 21 22 23 23 22 22 21 21 21 21 21 24 27 31 34 34 33 33 34 34 34 33 32 30 29 29 28 28 28 28 28 29 28 26 24 23 23 23 23 22 20 18 17 16 16 15
Wind_Direction
147 145 141 138 136 132 126 123 122 120 116 112 109 108 109 105 109 115 124 145 162 174 182 187 187 186 189 189 185 191 195 198 199 195 193 189 185 182 167 157 164 154 153 149 142 133 121 87 107 130 146 149 139 125 123 125 126 120 110 108 98 82 72
141 140 140 141 142 137 131 127 128 128 128 129 125 119 113 107 108 111 115 137 162 176 183 186 187 185 189 190 187 191 198 199 200 202 204 199 195 192 180 167 159 145 139 143 141 129 123 127 121 133 145 143 138 133 134 132 131 127 114 108 95 78 77
138 140 141 141 143 142 138 136 133 130 130 136 138 131 123 116 113 113 115 138 157 165 172 179 185 187 186 183 181 185 189 189 188 192 206 205 200 198 192 179 164 151 139 139 145 136 125 122 131 152 149 141 126 127 141 143 139 136 125 115 95 79 83
140 141 139 139 143 144 144 142 137 130 125 129 135 135 133 131 127 123 120 143 160 161 160 166 175 181 184 183 180 179 178 179 178 179 195 204 200 200 198 191 180 171 163 160 160 151 141 131 132 145 148 140 120 118 141 148 143 141 132 119 97 82 88
147 145 141 139 143 146 147 145 140 133 126 125 133 136 137 139 136 133 129 135 150 154 153 155 160 170 182 186 180 174 172 172 173 176 183 192 195 195 197 197 192 184 177 172 167 163 162 154 147 145 144 139 118 115 144 148 142 142 135 116 94 85 93
152 151 148 145 147 150 152 152 149 144 137 132 135 136 135 138 138 135 132 131 137 145 153 158 157 163 176 183 176 167 167 168 172 180 185 190 195 193 190 193 194 189 181 172 171 172 167 155 147 142 144 145 130 125 144 151 144 141 134 115 95 90 96
155 156 156 155 156 156 157 159 159 158 153 144 139 136 134 140 141 134 132 132 136 146 158 163 156 156 168 173 168 164 166 170 172 177 182 182 184 186 186 190 195 192 184 179 181 175 163 156 151 147 142 132 129 133 142 156 154 148 143 131 109 97 97
153 154 155 156 158 160 163 164 161 157 153 148 144 137 136 142 139 134 135 132 134 146 156 158 151 148 159 164 164 163 165 167 168 169 171 166 167 175 181 185 188 192 196 200 198 185 171 164 160 158 154 134 117 130 134 152 163 162 156 150 132 115 109
153 153 156 157 160 166 172 168 160 155 152 153 150 144 142 145 141 143 146 136 130 140 148 154 153 150 157 159 160 160 156 159 161 159 159 156 154 156 156 156 163 180 195 197 193 189 182 174 170 168 163 152 144 132 117 141 166 165 161 159 151 151 144
159 163 165 165 166 173 177 170 161 157 156 157 155 151 149 147 142 147 148 138 136 140 142 149 152 152 155 154 153 151 147 150 151 146 146 143 140 140 135 127 127 145 169 178 179 183 183 179 177 176 170 161 156 150 133 157 178 174 177 176 168 168 170
165 167 168 170 172 175 172 166 162 159 158 160 160 159 157 152 148 146 138 133 142 146 144 146 147 147 150 149 148 147 147 149 148 143 143 139 135 136 132 121 113 117 131 151 168 179 183 183 182 180 176 170 167 165 159 156 177 189 187 187 183 177 174
169 168 170 173 175 172 166 163 162 162 161 163 166 164 160 157 154 150 139 135 145 151 150 149 150 151 152 152 151 149 151 153 149 144 144 142 140 139 135 124 115 115 118 125 143 165 176 182 188 189 187 181 178 178 170 155 155 190 188 192 194 181 170
172 172 173 173 171 167 164 163 164 163 162 162 161 158 159 160 161 161 153 145 147 153 154 155 156 159 160 159 158 156 155 154 148 143 143 143 144 145 140 127 118 121 123 122 129 141 150 159 176 190 195 193 187 184 176 160 147 169 184 193 192 179 173
175 174 173 170 166 163 163 165 163 161 160 159 158 159 161 164 166 168 163 158 158 158 159 158 157 162 162 159 160 158 154 152 148 145 145 145 147 149 147 137 125 124 127 125 127 132 137 141 146 163 188 195 187 179 177 164 146 151 172 184 185 182 184
177 177 173 169 166 163 164 164 161 161 162 160 162 164 164 165 168 169 164 160 161 162 164 166 164 166 165 162 163 160 155 153 150 150 151 148 145 146 147 144 136 132 133 130 127 128 133 142 142 138 165 184 181 177 181 172 154 152 162 173 181 187 192
180 180 176 171 168 166 165 164 163 163 162 159 160 161 158 158 162 168 168 163 162 165 169 171 171 173 173 172 172 168 163 159 154 154 155 151 148 149 147 144 140 141 144 138 133 138 145 151 154 150 156 170 176 180 188 185 171 166 169 175 184 189 195
184 184 180 175 173 171 169 169 167 166 162 160 163 164 161 160 159 163 169 170 170 172 172 171 173 175 176 175 174 172 168 164 160 159 159 157 157 157 156 151 146 148 151 144 138 145 155 161 165 164 163 168 176 183 190 191 186 180 178 181 188 192 195
186 185 183 179 179 179 177 174 171 169 166 164 168 171 170 168 167 169 173 175 177 177 175 176 179 180 180 177 174 173 173 172 171 170 169 170 169 167 166 165 160 161 160 153 149 149 153 162 167 168 169 173 178 183 187 189 190 188 185 186 189 194 199
185 185 183 179 181 184 182 178 174 172 172 169 168 175 180 179 178 179 176 171 175 178 177 182 185 183 187 189 184 181 181 179 177 176 177 180 180 179 180 179 177 179 178 172 170 169 165 166 172 176 177 176 178 182 186 189 192 193 192 192 193 198 205
185 182 179 175 173 180 183 183 179 175 175 174 170 176 185 187 187 189 182 172 175 180 179 187 193 187 185 190 189 186 184 181 182 184 188 190 190 193 195 194 193 192 193 191 186 181 179 175 177 183 183 176 173 177 183 189 193 197 201 201 200 204 210
192 185 180 175 166 166 176 181 181 176 173 175 178 182 184 186 187 190 188 182 182 184 182 187 195 192 187 187 188 189 188 187 190 195 199 201 201 203 205 204 202 200 201 202 198 193 192 188 182 181 180 177 174 175 177 181 183 189 199 204 204 207 214
187 184 186 187 180 175 173 174 180 180 179 186 201 193 186 185 184 188 191 190 189 191 192 192 195 195 195 193 194 197 197 196 199 203 205 207 206 208 210 208 206 206 206 206 205 203 202 202 198 190 186 186 186 182 179 180 182 182 185 191 197 202 210
170 167 174 183 186 188 184 182 188 190 194 212 242 220 199 193 191 193 196 198 197 200 204 205 204 203 205 206 205 205 204 204 208 208 206 206 206 208 212 212 210 210 210 209 210 211 211 215 215 209 203 200 200 198 194 192 194 195 193 192 194 199 205
168 164 165 163 166 175 179 184 191 187 181 190 210 213 203 200 202 204 207 210 210 211 215 218 218 214 214 217 216 213 212 212 214 215 211 211 211 211 212 214 214 213 213 212 213 216 220 222 222 222 219 213 210 212 213 210 209 211 210 206 203 209 216
144 160 174 165 145 149 164 174 180 174 166 167 156 159 184 195 202 206 211 217 220 222 225 227 226 224 224 225 224 223 221 219 220 223 223 223 223 221 218 217 216 214 215 216 217 219 222 224 224 224 222 220 219 221 223 223 221 222 224 222 218 219 221
90 96 111 121 105 96 108 129 155 157 142 146 156 161 199 214 220 217 216 220 224 230 235 235 233 232 230 229 229 229 227 225 224 225 227 229 231 229 225 222 219 219 220 221 222 224 226 227 227 226 225 226 228 229 229 231 230 230 230 228 225 224 222
72 71 73 77 76 72 66 58 53 51 38 353 333 330 321 299 283 271 263 255 246 242 243 244 244 241 238 236 234 232 231 229 227 226 227 229 230 231 230 228 226 224 224 224 224 227 230 231 228 228 229 230 233 235 236 237 235 233 231 231 230 227 222
62 62 63 65 66 64 59 56 54 49 43 29 3 348 342 328 306 289 279 274 268 261 255 252 252 251 246 242 239 237 236 234 231 229 228 229 231 232 232 232 231 229 228 226 224 226 234 239 236 231 230 230 231 235 237 237 235 232 229 227 225 220 214
46 45 46 48 49 46 43 41 38 34 35 39 35 23 9 349 329 312 293 280 273 268 265 263 261 259 256 251 246 242 240 238 236 234 231 230 233 234 235 237 236 233 231 230 230 234 242 249 244 234 227 226 231 234 234 232 228 225 222 219 217 216 210
32 31 32 32 30 28 26 25 22 16 11 11 11 8 -0 348 339 332 319 305 293 282 276 272 270 268 266 263 258 251 245 241 238 238 237 235 236 238 240 240 237 233 232 234 237 238 238 242 242 235 229 231 233 230 226 223 220 213 209 208 206 202 194
21 19 21 22 19 15 13 11 9 6 2 357 354 353 348 339 332 330 327 322 315 303 291 283 278 274 271 270 267 262 257 251 244 243 244 244 243 243 242 241 240 241 243 244 244 240 237 240 238 231 231 232 226 219 213 208 203 192 181 179 176 172 171
17 14 14 14 13 10 7 2 358 355 353 350 347 344 342 336 328 325 324 323 320 315 305 294 284 277 271 269 268 266 264 259 252 248 248 248 247 246 245 245 245 247 248 248 247 242 236 235 231 227 233 229 218 216 215 205 194 182 171 169 168 164 162
20 17 14 10 8 6 1 356 351 348 346 345 342 339 338 337 331 325 323 322 321 320 315 305 293 282 274 269 266 265 264 260 257 256 254 251 249 247 246 245 246 246 245 244 243 237 231 232 234 238 239 230 222 227 222 201 190 185 176 171 167 159 154
18 17 14 10 7 4 359 355 352 349 347 344 341 339 337 336 331 326 322 320 319 320 320 317 307 294 283 276 270 265 260 257 257 258 258 257 254 250 246 244 243 241 238 235 233 230 229 234 242 245 238 228 229 235 220 196 186 185 178 170 161 153 151
8 7 6 5 4 3 2 359 357 356 356 353 352 350 345 339 335 330 323 318 317 317 316 317 315 306 292 282 276 269 263 260 260 258 256 256 256 253 251 248 244 241 239 236 234 235 239 243 245 241 231 223 226 224 205 188 181 176 169 163 155 151 152
3 2 1 1 2 1 2 2 2 3 4 2 1 358 351 345 340 334 328 322 318 316 314 312 312 311 303 289 279 272 268 266 265 260 256 255 256 256 255 251 247 244 243 242 243 246 250 251 245 237 229 223 217 205 188 179 174 169 164 158 151 145 143
2 3 3 2 2 2 1 360 359 1 2 2 0 356 352 348 343 339 334 328 321 317 314 311 309 310 309 300 286 276 272 270 267 260 256 256 256 256 255 253 249 245 244 245 247 248 247 242 234 228 221 214 203 189 177 172 170 166 161 154 146 139 137
Height
816 817 819 819 820 821 822 822 823 824 825 825 826 826 827 827 828 828 829 829 830 831 832 833 834 835 836 838 839 839 840 840 841 841 842 843 844 845 846 847 847 848 849 850 851 852 856 860 861 861 861 862 862 863 863 864 864 865 866 866 867 867 866
816 818 819 820 821 821 822 823 824 825 826 826 827 827 827 828 828 829 829 830 831 832 832 833 834 835 836 837 838 839 840 840 841 842 842 843 843 845 846 847 848 848 850 851 852 853 854 858 862 862 862 863 864 865 865 865 866 867 867 867 868 868 867
817 818 820 820 821 822 822 823 824 825 826 827 827 827 828 828 829 829 830 830 831 832 833 833 834 835 836 837 838 839 839 840 841 842 842 843 844 845 846 847 847 848 850 851 853 854 855 857 860 861 862 862 864 866 867 867 867 868 868 869 869 868 868
817 818 820 820 821 822 823 824 825 825 826 827 827 828 828 828 829 830 830 830 831 832 833 834 835 836 837 838 838 839 839 840 841 841 842 843 844 845 846 847 847 847 849 850 852 853 855 856 859 861 862 862 863 866 868 868 868 869 869 870 869 869 869
817 818 819 820 821 822 823 824 825 825 826 827 828 828 828 829 829 830 831 831 831 832 833 834 835 836 837 838 838 839 839 840 840 841 842 842 843 844 845 846 847 848 849 850 851 853 854 855 857 860 862 863 864 866 868 868 869 870 870 870 870 869 869
817 819 820 821 822 822 823 824 824 825 826 827 828 828 829 829 830 831 831 832 832 833 834 835 836 836 837 838 838 839 840 840 840 841 841 842 842 843 844 846 847 848 849 851 852 853 854 855 856 859 862 863 864 867 869 869 870 871 871 871 871 870 870
818 819 820 821 822 823 824 824 825 826 826 827 828 829 830 830 831 831 832 833 833 834 834 835 836 837 837 838 839 840 840 841 841 841 841 841 842 843 844 845 846 848 849 851 852 853 854 855 856 858 861 864 865 867 869 870 870 871 871 872 871 871 871
818 819 820 821 822 823 824 825 825 826 827 827 828 829 830 831 831 832 832 833 833 834 834 835 836 837 838 839 839 840 841 841 841 841 841 841 842 843 844 845 846 847 849 850 851 853 854 855 856 857 859 862 866 868 870 871 871 871 871 871 872 872 872
818 819 820 821 822 823 824 825 825 826 827 828 828 829 830 831 832 832 833 833 834 834 835 835 836 837 838 839 840 841 841 842 842 842 842 842 842 843 844 845 846 847 847 848 850 852 854 855 855 856 857 858 863 868 870 871 871 871 871 871 872 873 873
818 819 820 822 823 824 825 825 826 827 827 828 829 829 830 831 832 833 833 834 834 835 836 836 837 838 839 840 841 842 842 843 843 843 843 843 843 844 845 846 846 846 846 847 848 851 853 855 856 857 857 857 858 863 868 870 871 870 871 871 872 872 873
818 820 821 822 823 824 825 826 826 827 828 829 829 830 831 831 832 833 834 834 835 836 837 837 838 839 840 841 841 842 843 843 844 844 844 844 845 845 846 846 847 847 846 846 848 850 852 854 856 857 858 857 857 859 862 866 869 869 870 871 871 872 872
819 820 822 822 823 824 825 826 827 828 828 829 830 830 831 832 833 834 835 835 836 837 838 839 839 840 841 842 843 843 844 844 844 845 845 845 846 846 846 847 848 848 848 848 849 851 853 855 856 857 858 858 858 858 859 862 866 867 868 869 870 871 871
819 821 822 823 824 824 825 826 827 828 829 829 830 831 832 833 834 835 835 836 837 838 839 839 840 841 842 843 843 844 845 845 845 846 846 846 847 847 847 848 849 850 850 850 851 853 854 856 856 856 857 858 859 859 860 861 863 865 867 868 869 870 870
820 821 822 823 824 825 826 827 827 828 829 830 831 831 832 833 834 835 836 837 837 838 839 840 841 841 842 843 844 845 846 846 846 847 847 847 848 848 848 849 850 851 851 852 853 854 855 855 856 856 857 858 859 860 861 862 862 864 866 867 868 869 869
821 822 822 824 825 825 826 827 828 829 829 830 831 832 832 833 834 835 836 837 838 838 839 840 841 842 843 844 845 845 846 847 847 847 848 848 848 849 849 850 851 852 852 853 853 854 855 855 855 856 856 857 859 860 861 861 862 863 865 866 867 867 868
822 822 823 824 825 826 827 828 828 829 830 830 831 832 833 833 834 835 836 837 838 839 840 840 841 842 843 844 845 846 847 847 848 848 848 849 849 849 850 851 852 853 853 853 854 855 855 856 856 856 857 858 859 860 861 861 861 862 863 865 866 866 867
822 823 824 825 826 827 828 828 829 829 830 831 832 832 833 834 835 836 836 837 838 839 840 840 841 842 843 844 845 846 847 848 848 848 849 849 850 850 851 851 852 853 854 854 855 855 856 856 856 857 858 859 859 860 861 861 861 861 862 863 864 865 866
822 823 824 826 827 828 828 829 829 830 830 831 832 833 834 835 835 836 837 838 839 840 840 841 842 843 843 844 845 846 847 848 848 849 849 850 850 851 851 852 853 853 854 854 855 855 856 856 857 858 858 859 859 860 860 861 861 861 861 862 863 864 865
822 824 826 827 828 829 829 830 830 830 831 832 832 833 834 835 836 837 838 839 840 841 841 842 843 843 844 844 845 846 847 848 848 849 850 850 851 851 851 852 853 853 854 854 854 855 855 856 857 857 858 859 859 859 860 860 861 861 861 862 862 863 864
824 825 826 827 828 829 830 831 831 831 831 832 833 833 834 835 836 837 838 839 840 841 842 842 843 844 844 844 845 846 847 848 849 849 850 850 851 851 851 852 852 853 853 853 854 854 855 855 856 856 857 857 858 859 859 860 860 861 861 861 862 862 863
827 826 826 827 829 830 831 831 831 831 832 832 833 833 834 835 836 836 837 838 839 840 841 842 843 844 844 845 845 846 847 847 848 849 849 850 850 851 851 851 852 852 853 853 853 854 854 854 855 855 856 856 857 858 858 858 859 860 860 860 861 862 862
826 827 827 828 829 830 830 831 831 832 832 832 833 833 834 834 835 836 837 838 839 840 841 842 842 843 844 845 845 846 846 847 847 848 849 849 850 850 850 851 851 852 852 853 853 854 854 854 854 854 855 855 856 856 857 857 858 858 858 859 859 860 861
824 826 828 828 828 829 830 831 831 831 832 832 832 832 833 834 834 835 836 837 839 840 840 841 842 843 844 844 845 845 846 846 847 847 848 848 849 849 850 850 851 851 852 852 853 853 853 853 853 854 854 854 855 855 855 856 856 856 857 857 858 858 859
824 825 829 830 829 829 830 830 830 831 831 831 831 831 832 833 834 835 836 837 838 838 839 840 841 842 843 843 844 844 845 846 846 846 847 847 847 848 848 849 849 850 851 851 851 852 852 852 852 853 853 853 854 854 854 854 855 855 855 855 856 857 857
826 827 830 831 830 829 829 829 830 830 830 831 831 831 831 832 833 834 835 836 836 837 838 839 840 841 842 842 842 843 844 845 845 846 846 846 847 847 847 848 848 848 849 849 850 850 850 850 851 851 851 852 852 852 853 853 853 853 853 854 854 855 855
827 828 829 829 828 828 829 829 829 829 830 830 831 831 832 832 833 834 834 835 835 836 837 838 839 840 840 841 841 842 842 842 843 844 844 845 845 846 846 846 846 847 847 848 848 848 848 848 849 849 849 849 850 850 850 850 851 851 851 852 852 853 853
826 828 828 828 828 828 828 829 829 829 830 830 830 831 831 832 832 833 833 834 834 835 835 836 837 837 838 839 839 840 840 840 841 841 842 842 843 844 844 844 844 845 845 846 846 847 847 846 846 847 847 847 847 847 848 848 848 849 849 850 850 850 851
827 828 828 828 828 828 828 828 829 829 830 830 830 830 831 832 832 833 833 833 834 834 834 835 835 836 836 837 837 838 838 838 839 839 839 840 840 841 841 841 842 842 843 843 844 844 844 845 845 844 844 845 845 845 846 846 846 847 847 848 848 849 849
828 828 828 828 828 828 829 829 829 830 830 830 831 831 831 831 832 832 833 833 833 833 833 833 834 834 834 835 835 836 836 836 836 836 837 837 837 837 838 838 838 838 839 839 841 842 842 843 844 844 842 843 843 843 844 844 844 845 845 846 847 847 848
827 828 828 828 828 829 829 830 830 830 831 831 831 831 831 831 831 831 831 831 831 831 832 832 832 832 832 833 833 833 833 832 833 833 834 834 834 835 835 835 834 835 835 836 837 838 839 840 842 842 841 841 842 842 842 842 842 843 843 844 845 846 847
828 829 829 829 829 829 830 830 831 831 831 831 831 831 831 830 830 830 829 829 829 829 829 830 830 830 830 830 830 830 830 830 830 831 832 832 832 832 832 832 832 832 833 833 834 835 836 837 838 839 839 840 840 839 840 842 842 841 842 843 844 844 846
829 829 828 828 829 829 829 829 829 830 830 830 829 829 829 828 828 828 827 827 827 827 827 827 828 828 828 828 827 827 827 827 827 828 829 829 829 828 828 829 829 829 829 830 831 832 833 834 834 835 836 836 837 837 839 841 841 840 840 842 843 844 845
830 829 828 827 827 827 828 828 828 827 827 827 826 826 825 825 824 825 825 825 825 825 825 825 825 826 826 826 825 825 824 824 823 824 824 824 824 824 825 825 825 826 826 826 827 829 830 831 831 832 833 833 834 836 836 838 839 840 840 842 842 842 843
833 832 830 829 828 828 827 827 827 826 825 825 824 823 823 822 822 822 822 822 822 822 823 822 822 823 823 823 823 822 821 820 820 821 820 820 820 820 820 821 822 823 823 823 825 826 827 828 829 828 829 831 833 834 834 835 837 839 841 841 841 841 842
834 834 832 830 829 829 828 827 826 825 824 824 823 823 823 822 821 821 820 820 820 820 820 820 820 819 819 820 820 819 818 817 818 818 817 816 815 815 816 817 818 819 820 821 822 822 824 825 825 825 827 829 831 833 834 835 837 839 840 840 840 840 841
834 833 832 831 830 829 828 827 826 826 825 824 823 823 823 823 822 821 820 819 819 818 818 817 817 816 816 815 815 815 814 814 814 814 813 812 811 811 812 813 814 816 817 818 818 819 820 821 822 822 824 826 828 831 832 834 837 838 839 839 838 839 840
833 833 832 831 830 829 828 828 827 826 825 825 824 824 824 823 823 821 820 819 817 817 816 815 814 814 813 812 811 810 810 810 810 810 809 808 808 808 809 809 811 812 813 814 815 816 816 817 818 819 821 823 826 827 829 832 835 836 837 837 837 838 839